Location: Couloutre
(47.4081°N, 3.2259°E)
Time: 17:42:57
(UTC+00:00)

USA 234 - Pass Details

Date: 27 February 2020
Orbit: 1101 x 1107 km, 123.0° (Epoch: 03 April)

Event Time Altitude Azimuth Distance (km) Brightness Sun altitude
Exits shadow 18:55:19 15° 61° (ENE) 2,588 4.7 -15.5°
Maximum altitude 19:00:08 38° 1° (N) 1,612 4.2 -16.3°
Drops below altitude 10° 19:06:04 10° 296° (WNW) 2,966 6.6 -17.3°
Sets 19:08:42 0° 289° (WNW) 3,924 7.7 -17.7°
